Yellow Mule RAWS (NWS)

Jump to table bottom
Date/Time Wind Direction Wind Speed knots Wind Gust knots RH % Accumulated Precip Inches Air Temp Fahrenheit
2022-05-17 14:04 S 14 22 38 3.45 46
2022-05-17 13:04 SSW 13 20 35 3.45 45
2022-05-17 12:04 SSW 12 17 51 3.45 43
2022-05-17 11:04 SSW 10 17 55 3.45 45
2022-05-17 10:04 SSW 9 15 64 3.45 43
2022-05-17 09:04 SSW 6 10 81 3.45 40
2022-05-17 08:04 S 5 10 86 3.45 38
2022-05-17 07:04 SW 6 10 83 3.45 36
2022-05-17 06:04 W 6 8 84 3.45 34
2022-05-17 05:04 W 5 7 87 3.45 35
2022-05-17 04:04 WNW 3 6 87 3.45 36
2022-05-17 03:04 WNW 3 5 91 3.45 36
2022-05-17 02:04 NNW 1 6 100 3.45 34
2022-05-17 01:04 N 3 6 98 3.45 34
2022-05-17 00:04 NW 2 7 81 3.45 37
2022-05-16 23:04 W 3 6 70 3.45 40
2022-05-16 22:04 S 5 8 85 3.45 36
2022-05-16 21:04 WSW 8 10 65 3.45 40
2022-05-16 20:04 SSW 7 27 85 3.45 37
2022-05-16 19:04 S 16 20 90 3.4 37
2022-05-16 18:04 SSW 10 27 93 3.36 35
2022-05-16 17:04 S 10 21 59 3.2 43
2022-05-16 16:04 SW 11 28 63 3.2 45
2022-05-16 15:04 SW 12 17 57 3.19 47
2022-05-16 14:04 WSW 1 9 68 3.19 51
2022-05-16 13:04 SE 5 11 68 3.19 50
2022-05-16 12:04 SE 5 10 73 3.19 46
2022-05-16 11:04 S 7 23 71 3.19 47
2022-05-16 10:04 S 15 23 88 3.19 38
2022-05-16 09:04 S 8 10 89 3.17 39
2022-05-16 08:04 S 6 15 93 3.17 38
2022-05-16 07:04 SSW 11 23 95 3.17 36
2022-05-16 06:04 WSW 5 8 85 3.1 38
2022-05-16 05:04 W 7 9 80 3.09 38
2022-05-16 04:04 SE 3 17 66 3.09 42
2022-05-16 03:04 SSW 16 24 60 3.09 43
2022-05-16 02:04 S 10 23 53 3.09 43
2022-05-16 01:04 S 7 11 47 3.09 45
2022-05-16 00:04 S 10 14 51 3.09 43
2022-05-15 23:04 S 10 14 51 3.09 43
2022-05-15 22:04 SSE 8 13 53 3.09 43
2022-05-15 21:04 SSE 9 13 48 3.09 45
2022-05-15 20:04 SSE 9 14 44 3.09 49
2022-05-15 19:04 SSE 6 17 39 3.09 52
2022-05-15 18:04 SSW 7 17 38 3.09 52
2022-05-15 17:04 SSW 9 18 37 3.09 51
2022-05-15 16:04 SSW 10 17 41 3.09 49
2022-05-15 15:04 SSW 10 16 43 3.09 48
2022-05-15 14:04 S 10 17 41 3.09 48
2022-05-15 13:04 SSE 10 19 40 3.09 46